Year,Month,Day,Hour,Minute,Value (Times are PST for temperature in C)
2014,08,06,00,00,15.40
2014,08,06,00,01,15.40
2014,08,06,00,02,15.40
2014,08,06,00,03,15.40
2014,08,06,00,04,15.40
2014,08,06,00,05,15.40
2014,08,06,00,06,15.40
2014,08,06,00,07,15.40
2014,08,06,00,08,15.40
2014,08,06,00,09,15.40
2014,08,06,00,10,15.40
2014,08,06,00,11,15.40
2014,08,06,00,12,15.40
2014,08,06,00,13,15.40
2014,08,06,00,14,15.30
2014,08,06,00,15,15.30
2014,08,06,00,16,15.30
2014,08,06,00,17,15.30
2014,08,06,00,18,15.30
2014,08,06,00,19,15.30
2014,08,06,00,20,15.40
2014,08,06,00,21,15.40
2014,08,06,00,22,15.40
2014,08,06,00,23,15.30
2014,08,06,00,24,15.30
2014,08,06,00,25,15.30
2014,08,06,00,26,15.30
2014,08,06,00,27,15.30
2014,08,06,00,28,15.30
2014,08,06,00,29,15.30
2014,08,06,00,30,15.30
2014,08,06,00,31,15.30
2014,08,06,00,32,15.30
2014,08,06,00,33,15.30
2014,08,06,00,34,15.30
2014,08,06,00,35,15.30
2014,08,06,00,36,15.30
2014,08,06,00,37,15.30
2014,08,06,00,38,15.30
2014,08,06,00,39,15.30
2014,08,06,00,40,15.30
2014,08,06,00,41,15.30
2014,08,06,00,42,15.30
2014,08,06,00,43,15.30
2014,08,06,00,44,15.30
2014,08,06,00,45,15.30
2014,08,06,00,46,15.30
2014,08,06,00,47,15.30
2014,08,06,00,48,15.30
2014,08,06,00,49,15.30
2014,08,06,00,50,15.30
2014,08,06,00,51,15.30
2014,08,06,00,52,15.30
2014,08,06,00,53,15.30
2014,08,06,00,54,15.30
2014,08,06,00,55,15.30
2014,08,06,00,56,15.30
2014,08,06,00,57,15.30
2014,08,06,00,58,15.30
2014,08,06,00,59,15.30
2014,08,06,01,00,15.30
2014,08,06,01,01,15.30
2014,08,06,01,02,15.30
2014,08,06,01,03,15.30
2014,08,06,01,04,15.30
2014,08,06,01,05,15.30
2014,08,06,01,06,15.30
2014,08,06,01,07,15.30
2014,08,06,01,08,15.30
2014,08,06,01,09,15.30
2014,08,06,01,10,15.30
2014,08,06,01,11,15.30
2014,08,06,01,12,15.30
2014,08,06,01,13,15.30
2014,08,06,01,14,15.30
2014,08,06,01,15,15.30
2014,08,06,01,16,15.30
2014,08,06,01,17,15.30
2014,08,06,01,18,15.20
2014,08,06,01,19,15.20
2014,08,06,01,20,15.20
2014,08,06,01,21,15.20
2014,08,06,01,22,15.20
2014,08,06,01,23,15.20
2014,08,06,01,24,15.20
2014,08,06,01,25,15.20
2014,08,06,01,26,15.20
2014,08,06,01,27,15.20
2014,08,06,01,28,15.20
2014,08,06,01,29,15.20
2014,08,06,01,30,15.10
2014,08,06,01,31,15.10
2014,08,06,01,32,15.10
2014,08,06,01,33,15.10
2014,08,06,01,34,15.10
2014,08,06,01,35,15.10
2014,08,06,01,36,15.10
2014,08,06,01,37,15.10
2014,08,06,01,38,15.00
2014,08,06,01,39,15.00
2014,08,06,01,40,15.00
2014,08,06,01,41,15.00
2014,08,06,01,42,15.00
2014,08,06,01,43,15.00
2014,08,06,01,44,15.00
2014,08,06,01,45,15.00
2014,08,06,01,46,15.00
2014,08,06,01,47,15.00
2014,08,06,01,48,15.00
2014,08,06,01,49,15.00
2014,08,06,01,50,15.00
2014,08,06,01,51,15.00
2014,08,06,01,52,14.90
2014,08,06,01,53,14.90
2014,08,06,01,54,14.90
2014,08,06,01,55,14.90
2014,08,06,01,56,14.90
2014,08,06,01,57,14.90
2014,08,06,01,58,14.90
2014,08,06,01,59,14.90
2014,08,06,02,00,14.80
2014,08,06,02,01,14.80
2014,08,06,02,02,14.80
2014,08,06,02,03,14.80
2014,08,06,02,04,14.80
2014,08,06,02,05,14.80
2014,08,06,02,06,14.80
2014,08,06,02,07,14.80
2014,08,06,02,08,14.80
2014,08,06,02,09,14.80
2014,08,06,02,10,14.80
2014,08,06,02,11,14.80
2014,08,06,02,12,14.80
2014,08,06,02,13,14.80
2014,08,06,02,14,14.80
2014,08,06,02,15,14.80
2014,08,06,02,16,14.80
2014,08,06,02,17,14.80
2014,08,06,02,18,14.80
2014,08,06,02,19,14.80
2014,08,06,02,20,14.80
2014,08,06,02,21,14.80
2014,08,06,02,22,14.80
2014,08,06,02,23,14.70
2014,08,06,02,24,14.70
2014,08,06,02,25,14.70
2014,08,06,02,26,14.70
2014,08,06,02,27,14.70
2014,08,06,02,28,14.70
2014,08,06,02,29,14.70
2014,08,06,02,30,14.70
2014,08,06,02,31,14.70
2014,08,06,02,32,14.70
2014,08,06,02,33,14.70
2014,08,06,02,34,14.70
2014,08,06,02,35,14.70
2014,08,06,02,36,14.80
2014,08,06,02,37,14.80
2014,08,06,02,38,14.80
2014,08,06,02,39,14.80
2014,08,06,02,40,14.80
2014,08,06,02,41,14.80
2014,08,06,02,42,14.80
2014,08,06,02,43,14.80
2014,08,06,02,44,14.80
2014,08,06,02,45,14.80
2014,08,06,02,46,14.80
2014,08,06,02,47,14.80
2014,08,06,02,48,14.80
2014,08,06,02,49,14.80
2014,08,06,02,50,14.80
2014,08,06,02,51,14.80
2014,08,06,02,52,14.80
2014,08,06,02,53,14.80
2014,08,06,02,54,14.80
2014,08,06,02,55,14.80
2014,08,06,02,56,14.80
2014,08,06,02,57,14.80
2014,08,06,02,58,14.80
2014,08,06,02,59,14.80
2014,08,06,03,00,14.80
2014,08,06,03,01,14.80
2014,08,06,03,02,14.80
2014,08,06,03,03,14.80
2014,08,06,03,04,14.80
2014,08,06,03,05,14.80
2014,08,06,03,06,14.80
2014,08,06,03,07,14.80
2014,08,06,03,08,14.80
2014,08,06,03,09,14.80
2014,08,06,03,10,14.80
2014,08,06,03,11,14.80
2014,08,06,03,12,14.80
2014,08,06,03,13,14.80
2014,08,06,03,14,14.80
2014,08,06,03,15,14.80
2014,08,06,03,16,14.80
2014,08,06,03,17,14.80
2014,08,06,03,18,14.80
2014,08,06,03,19,14.80
2014,08,06,03,20,14.80
2014,08,06,03,21,14.80
2014,08,06,03,22,14.80
2014,08,06,03,23,14.80
2014,08,06,03,24,14.80
2014,08,06,03,25,14.80
2014,08,06,03,26,14.80
2014,08,06,03,27,14.80
2014,08,06,03,28,14.80
2014,08,06,03,29,14.80
2014,08,06,03,30,14.80
2014,08,06,03,31,14.80
2014,08,06,03,32,14.80
2014,08,06,03,33,14.80
2014,08,06,03,34,14.80
2014,08,06,03,35,14.80
2014,08,06,03,36,14.80
2014,08,06,03,37,14.80
2014,08,06,03,38,14.80
2014,08,06,03,39,14.80
2014,08,06,03,40,14.80
2014,08,06,03,41,14.80
2014,08,06,03,42,14.80
2014,08,06,03,43,14.80
2014,08,06,03,44,14.80
2014,08,06,03,45,14.80
2014,08,06,03,46,14.80
2014,08,06,03,47,14.80
2014,08,06,03,48,14.80
2014,08,06,03,49,14.80
2014,08,06,03,50,14.80
2014,08,06,03,51,14.80
2014,08,06,03,52,14.80
2014,08,06,03,53,14.80
2014,08,06,03,54,14.80
2014,08,06,03,55,14.80
2014,08,06,03,56,14.90
2014,08,06,03,57,14.90
2014,08,06,03,58,14.90
2014,08,06,03,59,14.90
2014,08,06,04,00,14.90
2014,08,06,04,01,14.90
2014,08,06,04,02,14.90
2014,08,06,04,03,14.90
2014,08,06,04,04,14.90
2014,08,06,04,05,14.90
2014,08,06,04,06,14.90
2014,08,06,04,07,14.90
2014,08,06,04,08,14.90
2014,08,06,04,09,14.90
2014,08,06,04,10,14.80
2014,08,06,04,11,14.80
2014,08,06,04,12,14.80
2014,08,06,04,13,14.80
2014,08,06,04,14,14.80
2014,08,06,04,15,14.80
2014,08,06,04,16,14.80
2014,08,06,04,17,14.80
2014,08,06,04,18,14.80
2014,08,06,04,19,14.80
2014,08,06,04,20,14.80
2014,08,06,04,21,14.80
2014,08,06,04,22,14.80
2014,08,06,04,23,14.80
2014,08,06,04,24,14.80
2014,08,06,04,25,14.80
2014,08,06,04,26,14.80
2014,08,06,04,27,14.80
2014,08,06,04,28,14.80
2014,08,06,04,29,14.80
2014,08,06,04,30,14.80
2014,08,06,04,31,14.80
2014,08,06,04,32,14.80
2014,08,06,04,33,14.80
2014,08,06,04,34,14.80
2014,08,06,04,35,14.80
2014,08,06,04,36,14.80
2014,08,06,04,37,14.80
2014,08,06,04,38,14.80
2014,08,06,04,39,14.80
2014,08,06,04,40,14.80
2014,08,06,04,41,14.80
2014,08,06,04,42,14.80
2014,08,06,04,43,14.80
2014,08,06,04,44,14.80
2014,08,06,04,45,14.70
2014,08,06,04,46,14.70
2014,08,06,04,47,14.70
2014,08,06,04,48,14.70
2014,08,06,04,49,14.70
2014,08,06,04,50,14.70
2014,08,06,04,51,14.70
2014,08,06,04,52,14.70
2014,08,06,04,53,14.70
2014,08,06,04,54,14.70
2014,08,06,04,55,14.70
2014,08,06,04,56,14.60
2014,08,06,04,57,14.60
2014,08,06,04,58,14.60
2014,08,06,04,59,14.60
2014,08,06,05,00,14.60
2014,08,06,05,01,14.60
2014,08,06,05,02,14.60
2014,08,06,05,03,14.60
2014,08,06,05,04,14.60
2014,08,06,05,05,14.60
2014,08,06,05,06,14.60
2014,08,06,05,07,14.60
2014,08,06,05,08,14.60
2014,08,06,05,09,14.60
2014,08,06,05,10,14.60
2014,08,06,05,11,14.60
2014,08,06,05,12,14.60
2014,08,06,05,13,14.60
2014,08,06,05,14,14.60
2014,08,06,05,15,14.60
2014,08,06,05,16,14.60
2014,08,06,05,17,14.60
2014,08,06,05,18,14.60
2014,08,06,05,19,14.60
2014,08,06,05,20,14.60
2014,08,06,05,21,14.60
2014,08,06,05,22,14.60
2014,08,06,05,23,14.60
2014,08,06,05,24,14.60
2014,08,06,05,25,14.60
2014,08,06,05,26,14.60
2014,08,06,05,27,14.60
2014,08,06,05,28,14.60
2014,08,06,05,29,14.60
2014,08,06,05,30,14.60
2014,08,06,05,31,14.60
2014,08,06,05,32,14.60
2014,08,06,05,33,14.60
2014,08,06,05,34,14.60
2014,08,06,05,35,14.70
2014,08,06,05,36,14.70
2014,08,06,05,37,14.70
2014,08,06,05,38,14.70
2014,08,06,05,39,14.60
2014,08,06,05,40,14.60
2014,08,06,05,41,14.60
2014,08,06,05,42,14.60
2014,08,06,05,43,14.60
2014,08,06,05,44,14.60
2014,08,06,05,45,14.60
2014,08,06,05,46,14.60
2014,08,06,05,47,14.60
2014,08,06,05,48,14.60
2014,08,06,05,49,14.60
2014,08,06,05,50,14.60
2014,08,06,05,51,14.60
2014,08,06,05,52,14.60
2014,08,06,05,53,14.60
2014,08,06,05,54,14.60
2014,08,06,05,55,14.60
2014,08,06,05,56,14.60
2014,08,06,05,57,14.60
2014,08,06,05,58,14.60
2014,08,06,05,59,14.60
2014,08,06,06,00,14.60
2014,08,06,06,01,14.70
2014,08,06,06,02,14.70
2014,08,06,06,03,14.70
2014,08,06,06,04,14.70
2014,08,06,06,05,14.70
2014,08,06,06,06,14.70
2014,08,06,06,07,14.70
2014,08,06,06,08,14.70
2014,08,06,06,09,14.70
2014,08,06,06,10,14.70
2014,08,06,06,11,14.70
2014,08,06,06,12,14.70
2014,08,06,06,13,14.70
2014,08,06,06,14,14.70
2014,08,06,06,15,14.70
2014,08,06,06,16,14.70
2014,08,06,06,17,14.70
2014,08,06,06,18,14.70
2014,08,06,06,19,14.70
2014,08,06,06,20,14.70
2014,08,06,06,21,14.70
2014,08,06,06,22,14.70
2014,08,06,06,23,14.70
2014,08,06,06,24,14.70
2014,08,06,06,25,14.70
2014,08,06,06,26,14.80
2014,08,06,06,27,14.80
2014,08,06,06,28,14.80
2014,08,06,06,29,14.80
2014,08,06,06,30,14.80
2014,08,06,06,31,14.80
2014,08,06,06,32,14.80
2014,08,06,06,33,14.80
2014,08,06,06,34,14.80
2014,08,06,06,35,14.80
2014,08,06,06,36,14.80
2014,08,06,06,37,14.80
2014,08,06,06,38,14.80
2014,08,06,06,39,14.80
2014,08,06,06,40,14.80
2014,08,06,06,41,14.80
2014,08,06,06,42,14.80
2014,08,06,06,43,14.80
2014,08,06,06,44,14.80
2014,08,06,06,45,14.80
2014,08,06,06,46,14.80
2014,08,06,06,47,14.80
2014,08,06,06,48,14.80
2014,08,06,06,49,14.90
2014,08,06,06,50,14.90
2014,08,06,06,51,14.90
2014,08,06,06,52,14.90
2014,08,06,06,53,14.90
2014,08,06,06,54,14.90
2014,08,06,06,55,14.90
2014,08,06,06,56,14.90
2014,08,06,06,57,14.90
2014,08,06,06,58,14.90
2014,08,06,06,59,14.90
2014,08,06,07,00,14.90
2014,08,06,07,01,14.90
2014,08,06,07,02,14.90
2014,08,06,07,03,14.90
2014,08,06,07,04,14.90
2014,08,06,07,05,14.90
2014,08,06,07,06,14.90
2014,08,06,07,07,14.90
2014,08,06,07,08,14.90
2014,08,06,07,09,14.80
2014,08,06,07,10,14.80
2014,08,06,07,11,14.80
2014,08,06,07,12,14.80
2014,08,06,07,13,14.80
2014,08,06,07,14,14.80
2014,08,06,07,15,14.80
2014,08,06,07,16,14.90
2014,08,06,07,17,14.90
2014,08,06,07,18,15.00
2014,08,06,07,19,15.00
2014,08,06,07,20,15.00
2014,08,06,07,21,15.10
2014,08,06,07,22,15.10
2014,08,06,07,23,15.20
2014,08,06,07,24,15.20
2014,08,06,07,25,15.30
2014,08,06,07,26,15.30
2014,08,06,07,27,15.30
2014,08,06,07,28,15.30
2014,08,06,07,29,15.30
2014,08,06,07,30,15.40
2014,08,06,07,31,15.40
2014,08,06,07,32,15.40
2014,08,06,07,33,15.40
2014,08,06,07,34,15.40
2014,08,06,07,35,15.50
2014,08,06,07,36,15.50
2014,08,06,07,37,15.50
2014,08,06,07,38,15.50
2014,08,06,07,39,15.50
2014,08,06,07,40,15.60
2014,08,06,07,41,15.60
2014,08,06,07,42,15.60
2014,08,06,07,43,15.60
2014,08,06,07,44,15.70
2014,08,06,07,45,15.70
2014,08,06,07,46,15.70
2014,08,06,07,47,15.70
2014,08,06,07,48,15.70
2014,08,06,07,49,15.70
2014,08,06,07,50,15.70
2014,08,06,07,51,15.70
2014,08,06,07,52,15.70
2014,08,06,07,53,15.70
2014,08,06,07,54,15.80
2014,08,06,07,55,15.80
2014,08,06,07,56,15.80
2014,08,06,07,57,15.80
2014,08,06,07,58,15.80
2014,08,06,07,59,15.90
2014,08,06,08,00,16.00
2014,08,06,08,01,16.10
2014,08,06,08,02,16.20
2014,08,06,08,03,16.20
2014,08,06,08,04,16.30
2014,08,06,08,05,16.40
2014,08,06,08,06,16.40
2014,08,06,08,07,16.40
2014,08,06,08,08,16.40
2014,08,06,08,09,16.50
2014,08,06,08,10,16.60
2014,08,06,08,11,16.70
2014,08,06,08,12,16.70
2014,08,06,08,13,16.70
2014,08,06,08,14,16.80
2014,08,06,08,15,16.80
2014,08,06,08,16,16.80
2014,08,06,08,17,16.90
2014,08,06,08,18,16.90
2014,08,06,08,19,16.90
2014,08,06,08,20,17.00
2014,08,06,08,21,17.00
2014,08,06,08,22,17.00
2014,08,06,08,23,17.00
2014,08,06,08,24,17.00
2014,08,06,08,25,17.00
2014,08,06,08,26,17.00
2014,08,06,08,27,17.00
2014,08,06,08,28,16.90
2014,08,06,08,29,16.90
2014,08,06,08,30,16.80
2014,08,06,08,31,16.70
2014,08,06,08,32,16.70
2014,08,06,08,33,16.70
2014,08,06,08,34,16.70
2014,08,06,08,35,16.70
2014,08,06,08,36,16.70
2014,08,06,08,37,16.70
2014,08,06,08,38,16.70
2014,08,06,08,39,16.70
2014,08,06,08,40,16.70
2014,08,06,08,41,16.70
2014,08,06,08,42,16.70
2014,08,06,08,43,16.70
2014,08,06,08,44,16.80
2014,08,06,08,45,16.80
2014,08,06,08,46,16.80
2014,08,06,08,47,16.80
2014,08,06,08,48,16.80
2014,08,06,08,49,16.80
2014,08,06,08,50,16.90
2014,08,06,08,51,16.90
2014,08,06,08,52,16.90
2014,08,06,08,53,16.90
2014,08,06,08,54,17.00
2014,08,06,08,55,17.00
2014,08,06,08,56,17.00
2014,08,06,08,57,17.10
2014,08,06,08,58,17.20
2014,08,06,08,59,17.20
2014,08,06,09,00,17.30
2014,08,06,09,01,17.30
2014,08,06,09,02,17.40
2014,08,06,09,03,17.50
2014,08,06,09,04,17.50
2014,08,06,09,05,17.60
2014,08,06,09,06,17.60
2014,08,06,09,07,17.60
2014,08,06,09,08,17.60
2014,08,06,09,09,17.70
2014,08,06,09,10,17.70
2014,08,06,09,11,17.80
2014,08,06,09,12,17.90
2014,08,06,09,13,17.90
2014,08,06,09,14,17.90
2014,08,06,09,15,17.90
2014,08,06,09,16,17.90
2014,08,06,09,17,17.90
2014,08,06,09,18,17.90
2014,08,06,09,19,17.90
2014,08,06,09,20,18.00
2014,08,06,09,21,18.10
2014,08,06,09,22,18.10
2014,08,06,09,23,18.20
2014,08,06,09,24,18.30
2014,08,06,09,25,18.40
2014,08,06,09,26,18.50
2014,08,06,09,27,18.60
2014,08,06,09,28,18.60
2014,08,06,09,29,18.70
2014,08,06,09,30,18.80
2014,08,06,09,31,18.90
2014,08,06,09,32,19.00
2014,08,06,09,33,19.10
2014,08,06,09,34,19.20
2014,08,06,09,35,19.30
2014,08,06,09,36,19.30
2014,08,06,09,37,19.40
2014,08,06,09,38,19.40
2014,08,06,09,39,19.40
2014,08,06,09,40,19.40
2014,08,06,09,41,19.40
2014,08,06,09,42,19.40
2014,08,06,09,43,19.40
2014,08,06,09,44,19.40
2014,08,06,09,45,19.40
2014,08,06,09,46,19.40
2014,08,06,09,47,19.40
2014,08,06,09,48,19.40
2014,08,06,09,49,19.40
2014,08,06,09,50,19.50
2014,08,06,09,51,19.50
2014,08,06,09,52,19.50
2014,08,06,09,53,19.50
2014,08,06,09,54,19.50
2014,08,06,09,55,19.50
2014,08,06,09,56,19.50
2014,08,06,09,57,19.50
2014,08,06,09,58,19.60
2014,08,06,09,59,19.60
2014,08,06,10,00,19.70
2014,08,06,10,01,19.70
2014,08,06,10,02,19.80
2014,08,06,10,03,19.80
2014,08,06,10,04,19.80
2014,08,06,10,05,19.80
2014,08,06,10,06,19.80
2014,08,06,10,07,19.80
2014,08,06,10,08,19.80
2014,08,06,10,09,19.80
2014,08,06,10,10,19.80
2014,08,06,10,11,19.90
2014,08,06,10,12,19.90
2014,08,06,10,13,19.90
2014,08,06,10,14,20.10
2014,08,06,10,15,20.20
2014,08,06,10,16,20.40
2014,08,06,10,17,20.50
2014,08,06,10,18,20.60
2014,08,06,10,19,20.70
2014,08,06,10,20,20.80
2014,08,06,10,21,21.00
2014,08,06,10,22,21.00
2014,08,06,10,23,21.10
2014,08,06,10,24,21.20
2014,08,06,10,25,21.20
2014,08,06,10,26,21.20
2014,08,06,10,27,21.20
2014,08,06,10,28,21.20
2014,08,06,10,29,21.20
2014,08,06,10,30,21.20
2014,08,06,10,31,21.20
2014,08,06,10,32,21.30
2014,08,06,10,33,21.30
2014,08,06,10,34,21.30
2014,08,06,10,35,21.30
2014,08,06,10,36,21.40
2014,08,06,10,37,21.50
2014,08,06,10,38,21.60
2014,08,06,10,39,21.60
2014,08,06,10,40,21.60
2014,08,06,10,41,21.60
2014,08,06,10,42,21.50
2014,08,06,10,43,21.40
2014,08,06,10,44,21.30
2014,08,06,10,45,21.20
2014,08,06,10,46,21.10
2014,08,06,10,47,21.10
2014,08,06,10,48,21.00
2014,08,06,10,49,20.90
2014,08,06,10,50,20.80
2014,08,06,10,51,20.70
2014,08,06,10,52,20.60
2014,08,06,10,53,20.60
2014,08,06,10,54,20.50
2014,08,06,10,55,20.40
2014,08,06,10,56,20.30
2014,08,06,10,57,20.20
2014,08,06,10,58,20.20
2014,08,06,10,59,20.20
2014,08,06,11,00,20.10
2014,08,06,11,01,20.10
2014,08,06,11,02,20.20
2014,08,06,11,03,20.20
2014,08,06,11,04,20.30
2014,08,06,11,05,20.40
2014,08,06,11,06,20.50
2014,08,06,11,07,20.60
2014,08,06,11,08,20.70
2014,08,06,11,09,20.80
2014,08,06,11,10,20.90
2014,08,06,11,11,20.80
2014,08,06,11,12,20.80
2014,08,06,11,13,20.80
2014,08,06,11,14,20.60
2014,08,06,11,15,20.60
2014,08,06,11,16,20.50
2014,08,06,11,17,20.50
2014,08,06,11,18,20.40
2014,08,06,11,19,20.30
2014,08,06,11,20,20.10
2014,08,06,11,21,19.60
2014,08,06,11,22,19.20
2014,08,06,11,23,18.90
2014,08,06,11,24,18.80
2014,08,06,11,25,18.80
2014,08,06,11,26,18.80
2014,08,06,11,27,18.80
2014,08,06,11,28,18.70
2014,08,06,11,29,18.70
2014,08,06,11,30,18.70
2014,08,06,11,31,18.70
2014,08,06,11,32,18.70
2014,08,06,11,33,18.80
2014,08,06,11,34,18.70
2014,08,06,11,35,18.30
2014,08,06,11,36,17.90
2014,08,06,11,37,17.80
2014,08,06,11,38,17.70
2014,08,06,11,39,17.30
2014,08,06,11,40,17.20
2014,08,06,11,41,17.00
2014,08,06,11,42,16.90
2014,08,06,11,43,16.60
2014,08,06,11,44,16.30
2014,08,06,11,45,16.10
2014,08,06,11,46,15.90
2014,08,06,11,47,15.80
2014,08,06,11,48,15.70
2014,08,06,11,49,15.50
2014,08,06,11,50,15.30
2014,08,06,11,51,15.40
2014,08,06,11,52,15.50
2014,08,06,11,53,15.70
2014,08,06,11,54,15.70
2014,08,06,11,55,15.80
2014,08,06,11,56,15.90
2014,08,06,11,57,16.00
2014,08,06,11,58,16.10
2014,08,06,11,59,16.20
2014,08,06,12,00,16.20
2014,08,06,12,01,16.10
2014,08,06,12,02,16.10
2014,08,06,12,03,16.10
2014,08,06,12,04,16.10
2014,08,06,12,05,16.10
2014,08,06,12,06,16.20
2014,08,06,12,07,16.20
2014,08,06,12,08,16.20
2014,08,06,12,09,16.30
2014,08,06,12,10,16.40
2014,08,06,12,11,16.40
2014,08,06,12,12,16.40
2014,08,06,12,13,16.50
2014,08,06,12,14,16.60
2014,08,06,12,15,16.50
2014,08,06,12,16,16.50
2014,08,06,12,17,16.50
2014,08,06,12,18,16.30
2014,08,06,12,19,16.00
2014,08,06,12,20,15.80
2014,08,06,12,21,15.80
2014,08,06,12,22,15.80
2014,08,06,12,23,15.80
2014,08,06,12,24,15.80
2014,08,06,12,25,15.80
2014,08,06,12,26,15.50
2014,08,06,12,27,15.20
2014,08,06,12,28,15.00
2014,08,06,12,29,14.90
2014,08,06,12,30,15.00
2014,08,06,12,31,15.00
2014,08,06,12,32,15.00
2014,08,06,12,33,15.20
2014,08,06,12,34,15.30
2014,08,06,12,35,15.40
2014,08,06,12,36,15.50
2014,08,06,12,37,15.60
2014,08,06,12,38,15.60
2014,08,06,12,39,15.70
2014,08,06,12,40,15.80
2014,08,06,12,41,15.80
2014,08,06,12,42,15.80
2014,08,06,12,43,15.70
2014,08,06,12,44,15.70
2014,08,06,12,45,15.70
2014,08,06,12,46,15.70
2014,08,06,12,47,15.60
2014,08,06,12,48,15.70
2014,08,06,12,49,15.70
2014,08,06,12,50,15.80
2014,08,06,12,51,15.90
2014,08,06,12,52,16.10
2014,08,06,12,53,16.10
2014,08,06,12,54,16.10
2014,08,06,12,55,15.80
2014,08,06,12,56,15.80
2014,08,06,12,57,15.90
2014,08,06,12,58,16.10
2014,08,06,12,59,16.10
2014,08,06,13,00,16.00
2014,08,06,13,01,15.80
2014,08,06,13,02,15.80
2014,08,06,13,03,15.90
2014,08,06,13,04,15.80
2014,08,06,13,05,15.90
2014,08,06,13,06,15.90
2014,08,06,13,07,16.00
2014,08,06,13,08,16.10
2014,08,06,13,09,16.20
2014,08,06,13,10,16.30
2014,08,06,13,11,16.50
2014,08,06,13,12,16.60
2014,08,06,13,13,16.70
2014,08,06,13,14,16.70
2014,08,06,13,15,16.80
2014,08,06,13,16,16.80
2014,08,06,13,17,16.90
2014,08,06,13,18,16.90
2014,08,06,13,19,16.70
2014,08,06,13,20,16.70
2014,08,06,13,21,16.60
2014,08,06,13,22,16.70
2014,08,06,13,23,16.70
2014,08,06,13,24,16.80
2014,08,06,13,25,16.90
2014,08,06,13,26,16.90
2014,08,06,13,27,17.10
2014,08,06,13,28,17.30
2014,08,06,13,29,17.40
2014,08,06,13,30,17.60
2014,08,06,13,31,17.70
2014,08,06,13,32,17.70
2014,08,06,13,33,17.80
2014,08,06,13,34,17.90
2014,08,06,13,35,17.90
2014,08,06,13,36,17.80
2014,08,06,13,37,17.50
2014,08,06,13,38,17.20
2014,08,06,13,39,17.00
2014,08,06,13,40,16.90
2014,08,06,13,41,16.70
2014,08,06,13,42,16.70
2014,08,06,13,43,16.50
2014,08,06,13,44,16.40
2014,08,06,13,45,16.30
2014,08,06,13,46,16.30
2014,08,06,13,47,16.30
2014,08,06,13,48,16.20
2014,08,06,13,49,16.10
2014,08,06,13,50,16.10
2014,08,06,13,51,16.10
2014,08,06,13,52,16.10
2014,08,06,13,53,16.30
2014,08,06,13,54,16.40
2014,08,06,13,55,16.60
2014,08,06,13,56,16.80
2014,08,06,13,57,16.90
2014,08,06,13,58,17.00
2014,08,06,13,59,17.20
2014,08,06,14,00,17.40
2014,08,06,14,01,17.60
2014,08,06,14,02,17.80
2014,08,06,14,03,18.00
2014,08,06,14,04,18.20
2014,08,06,14,05,18.40
2014,08,06,14,06,18.60
2014,08,06,14,07,18.80
2014,08,06,14,08,19.00
2014,08,06,14,09,19.20
2014,08,06,14,10,19.30
2014,08,06,14,11,19.30
2014,08,06,14,12,19.20
2014,08,06,14,13,19.10
2014,08,06,14,14,19.10
2014,08,06,14,15,19.10
2014,08,06,14,16,18.90
2014,08,06,14,17,18.70
2014,08,06,14,18,18.40
2014,08,06,14,19,18.20
2014,08,06,14,20,18.20
2014,08,06,14,21,18.20
2014,08,06,14,22,18.20
2014,08,06,14,23,18.30
2014,08,06,14,24,18.50
2014,08,06,14,25,18.60
2014,08,06,14,26,18.60
2014,08,06,14,27,18.70
2014,08,06,14,28,18.90
2014,08,06,14,29,18.90
2014,08,06,14,30,18.90
2014,08,06,14,31,18.90
2014,08,06,14,32,18.90
2014,08,06,14,33,18.90
2014,08,06,14,34,19.00
2014,08,06,14,35,18.90
2014,08,06,14,36,18.80
2014,08,06,14,37,18.60
2014,08,06,14,38,18.50
2014,08,06,14,39,18.50
2014,08,06,14,40,18.60
2014,08,06,14,41,18.60
2014,08,06,14,42,18.50
2014,08,06,14,43,18.60
2014,08,06,14,44,18.60
2014,08,06,14,45,18.70
2014,08,06,14,46,18.70
2014,08,06,14,47,18.70
2014,08,06,14,48,18.70
2014,08,06,14,49,18.70
2014,08,06,14,50,18.70
2014,08,06,14,51,18.60
2014,08,06,14,52,18.50
2014,08,06,14,53,18.30
2014,08,06,14,54,18.30
2014,08,06,14,55,18.30
2014,08,06,14,56,18.40
2014,08,06,14,57,18.50
2014,08,06,14,58,18.60
2014,08,06,14,59,18.70
2014,08,06,15,00,18.80
2014,08,06,15,01,18.90
2014,08,06,15,02,18.80
2014,08,06,15,03,18.70
2014,08,06,15,04,18.70
2014,08,06,15,05,18.70
2014,08,06,15,06,18.70
2014,08,06,15,07,18.80
2014,08,06,15,08,18.90
2014,08,06,15,09,18.90
2014,08,06,15,10,18.90
2014,08,06,15,11,18.90
2014,08,06,15,12,18.90
2014,08,06,15,13,18.90
2014,08,06,15,14,19.00
2014,08,06,15,15,19.10
2014,08,06,15,16,19.10
2014,08,06,15,17,19.10
2014,08,06,15,18,19.10
2014,08,06,15,19,19.20
2014,08,06,15,20,19.40
2014,08,06,15,21,19.50
2014,08,06,15,22,19.60
2014,08,06,15,23,19.50
2014,08,06,15,24,19.60
2014,08,06,15,25,19.60
2014,08,06,15,26,19.50
2014,08,06,15,27,19.30
2014,08,06,15,28,19.30
2014,08,06,15,29,19.30
2014,08,06,15,30,19.30
2014,08,06,15,31,19.30
2014,08,06,15,32,19.40
2014,08,06,15,33,19.40
2014,08,06,15,34,19.50
2014,08,06,15,35,19.50
2014,08,06,15,36,19.50
2014,08,06,15,37,19.30
2014,08,06,15,38,19.30
2014,08,06,15,39,19.10
2014,08,06,15,40,19.00
2014,08,06,15,41,18.80
2014,08,06,15,42,18.70
2014,08,06,15,43,18.60
2014,08,06,15,44,18.60
2014,08,06,15,45,18.50
2014,08,06,15,46,18.50
2014,08,06,15,47,18.50
2014,08,06,15,48,18.50
2014,08,06,15,49,18.30
2014,08,06,15,50,18.30
2014,08,06,15,51,18.20
2014,08,06,15,52,18.20
2014,08,06,15,53,18.20
2014,08,06,15,54,18.20
2014,08,06,15,55,18.20
2014,08,06,15,56,18.10
2014,08,06,15,57,18.10
2014,08,06,15,58,18.10
2014,08,06,15,59,18.20
2014,08,06,16,00,18.30
2014,08,06,16,01,18.30
2014,08,06,16,02,18.20
2014,08,06,16,03,18.20
2014,08,06,16,04,18.00
2014,08,06,16,05,17.80
2014,08,06,16,06,17.70
2014,08,06,16,07,17.80
2014,08,06,16,08,17.80
2014,08,06,16,09,17.70
2014,08,06,16,10,17.60
2014,08,06,16,11,17.50
2014,08,06,16,12,17.50
2014,08,06,16,13,17.50
2014,08,06,16,14,17.40
2014,08,06,16,15,17.30
2014,08,06,16,16,17.30
2014,08,06,16,17,17.20
2014,08,06,16,18,17.20
2014,08,06,16,19,17.20
2014,08,06,16,20,17.10
2014,08,06,16,21,17.10
2014,08,06,16,22,17.10
2014,08,06,16,23,17.10
2014,08,06,16,24,17.10
2014,08,06,16,25,17.10
2014,08,06,16,26,17.00
2014,08,06,16,27,17.00
2014,08,06,16,28,16.90
2014,08,06,16,29,16.90
2014,08,06,16,30,17.00
2014,08,06,16,31,17.10
2014,08,06,16,32,17.10
2014,08,06,16,33,17.10
2014,08,06,16,34,17.10
2014,08,06,16,35,17.10
2014,08,06,16,36,17.00
2014,08,06,16,37,16.90
2014,08,06,16,38,16.80
2014,08,06,16,39,16.70
2014,08,06,16,40,16.60
2014,08,06,16,41,16.40
2014,08,06,16,42,16.40
2014,08,06,16,43,16.40
2014,08,06,16,44,16.40
2014,08,06,16,45,16.40
2014,08,06,16,46,16.30
2014,08,06,16,47,16.10
2014,08,06,16,48,16.10
2014,08,06,16,49,16.10
2014,08,06,16,50,16.20
2014,08,06,16,51,16.20
2014,08,06,16,52,16.30
2014,08,06,16,53,16.30
2014,08,06,16,54,16.30
2014,08,06,16,55,16.30
2014,08,06,16,56,16.30
2014,08,06,16,57,16.20
2014,08,06,16,58,16.10
2014,08,06,16,59,16.20
2014,08,06,17,00,16.20
2014,08,06,17,01,16.20
2014,08,06,17,02,16.20
2014,08,06,17,03,16.20
2014,08,06,17,04,16.20
2014,08,06,17,05,16.30
2014,08,06,17,06,16.30
2014,08,06,17,07,16.30
2014,08,06,17,08,16.30
2014,08,06,17,09,16.40
2014,08,06,17,10,16.30
2014,08,06,17,11,16.30
2014,08,06,17,12,16.20
2014,08,06,17,13,16.20
2014,08,06,17,14,16.20
2014,08,06,17,15,16.30
2014,08,06,17,16,16.30
2014,08,06,17,17,16.40
2014,08,06,17,18,16.40
2014,08,06,17,19,16.60